Home   Weather   Plymouth   Past weeks

Flag for United Kingdom Past Weather in Plymouth, England, United Kingdom — Yesterday and Last 2 Weeks

Now
43 °F

Passing clouds.


Feels Like: 40 °F
Forecast: N/A
Wind: 5 mph from South

Location: Exeter Airport

Current Time: Feb 24, 2017 at 9:49:16 pm

Latest Report: Feb 24, 2017 at 9:20 pm


Visibility: N/A

Pressure: 30.09 "Hg

Humidity: 81%

Dew Point: 37 °F

Location of PlymouthLocation

Past Weather in Plymouth — Graph

°F

Plymouth Temperature Yesterday

Maximum temperature yesterday: 52 °F (at 12:50 am)
Minimum temperature yesterday: 41 °F (at 11:20 pm)
Average temperature yesterday: 47 °F

High & Low Weather Summary for the Past Weeks

 TemperatureHumidityPressure
High57 °F (Feb 20, 1:20 pm)100% (Feb 14, 1:50 pm)30.45 "Hg (Feb 14, 1:50 pm)
Low28 °F (Feb 11, 12:20 am)51% (Feb 13, 2:20 pm)29.42 "Hg (Feb 23, 5:50 am)
Average46 °F84%30.13 "Hg
* Reported Feb 9 8:20 pm — Feb 24 8:50 pm, Plymouth, Weather by CustomWeather, © 2017

Note: Actual official high and low records may vary slightly from our data, if they occured in-between our weather recording intervals... More about our weather records

Advertising

Plymouth Weather History for the Previous 24 Hours

Scroll right to see more
 ConditionsComfort  
Time TempWeatherWind HumidityBarometerVisibility
8:50 pm
Fri, Feb 24
43 °FPassing clouds.3 mph81%30.09 "HgN/A
8:20 pm45 °FPassing clouds.3 mph76%30.09 "HgN/A
7:50 pm45 °FPassing clouds.5 mph76%30.09 "HgN/A
7:20 pm45 °FPassing clouds.No wind76%30.12 "HgN/A
6:50 pm45 °FPassing clouds.No wind76%30.12 "HgN/A
6:20 pm46 °FPassing clouds.No wind71%30.09 "HgN/A
5:50 pm46 °FPassing clouds.5 mph66%30.09 "HgN/A
5:20 pm48 °FPassing clouds.7 mph62%30.09 "HgN/A
4:50 pm50 °FPassing clouds.7 mph58%30.09 "HgN/A
4:20 pm50 °FPassing clouds.7 mph58%30.09 "HgN/A
3:50 pm50 °FPassing clouds.9 mph58%30.09 "HgN/A
3:20 pm50 °FPassing clouds.8 mph54%30.09 "HgN/A
2:50 pm52 °FPassing clouds.10 mph54%30.09 "HgN/A
2:20 pm50 °FPassing clouds.9 mph54%30.09 "HgN/A
1:50 pm50 °FPassing clouds.9 mph58%30.09 "HgN/A
1:20 pm48 °FScattered clouds.9 mph58%30.09 "HgN/A
12:50 pm48 °FPassing clouds.9 mph62%30.09 "HgN/A
12:20 pm50 °FScattered clouds.9 mph58%30.09 "HgN/A
11:50 am48 °FScattered clouds.8 mph62%30.09 "HgN/A
11:20 am48 °FScattered clouds.8 mph62%30.09 "HgN/A
10:50 am46 °FScattered clouds.2 mph71%30.09 "HgN/A
10:20 am46 °FPassing clouds.6 mph66%30.09 "HgN/A
9:50 am45 °FPassing clouds.5 mph71%30.09 "HgN/A
9:20 am41 °FPassing clouds.3 mph81%30.09 "HgN/A
8:50 am37 °FPassing clouds.3 mph87%30.07 "HgN/A
8:20 am36 °FPassing clouds.No wind87%30.07 "HgN/A
7:50 am34 °FPassing clouds.3 mph87%30.04 "HgN/A
7:20 am34 °FPassing clouds.3 mph87%30.04 "HgN/A
6:50 am34 °FPassing clouds.2 mph87%30.04 "HgN/A
1:20 am39 °FClear.No wind75%29.95 "Hg10 mi
12:50 am39 °FClear.9 mph75%29.92 "Hg10 mi
12:20 am39 °FClear.5 mph75%29.92 "Hg10 mi
11:50 pm
Thu, Feb 23
41 °FClear.8 mph70%29.89 "Hg10 mi
11:20 pm41 °FClear.9 mph70%29.89 "Hg10 mi
10:50 pm43 °FClear.15 mph66%29.86 "Hg10 mi
10:20 pm43 °FPassing clouds.15 mph66%29.86 "HgN/A
9:50 pm43 °FPassing clouds.17 mph71%29.83 "HgN/A
9:20 pm43 °FPassing clouds.13 mph71%29.83 "HgN/A
Weather by CustomWeather, © 2017

See weather overviewHow to use our weather pages